Terre Haute, IN

7:06 AM EDT on September 30, 2016 (GMT -0400)
Terre Haute International-Hulman

Weather History for KHUF - August, 2013

Change the Weather History Date:

Thursday, August 22, 2013

  Actual Average Record
Temperature  
Mean Temperature 75 °F 72 °F  
Max Temperature 87 °F 84 °F 97 °F (1955)
Min Temperature 63 °F 62 °F 45 °F (1956)
Degree Days  
Heating Degree Days 0 0  
Month to date heating degree days 8 0  
Since 1 June heating degree days 17 14  
Since 1 July heating degree days 10 1  
Cooling Degree Days 10 8  
Month to date cooling degree days 142 186  
Year to date cooling degree days 759 818  
Since 1 June cooling degree days 645 732  
Growing Degree Days 24 (Base 50)    
Moisture  
Dew Point 66 °F    
Average Humidity 77    
Maximum Humidity 93    
Minimum Humidity 61    
Precipitation  
Precipitation 0.14 in 0.12 in 1.40 in (1977)
Month to date precipitation 1.17 2.30  
Year to date precipitation 32.93 29.97  
Sea Level Pressure  
Sea Level Pressure 30.08 in    
Wind  
Wind Speed 4 mph (NE)    
Max Wind Speed 26 mph    
Max Gust Speed 36 mph    
Visibility 8 miles    
Events Rain , Thunderstorm    
T = Trace of Precipitation, MM = Missing Value Source: NWS Daily Summary

Daily Weather History Graph

Daily Weather History Graph

Search for Another Location

Airport or City:

Trip Planner

Search our weather history database for the weather conditions in past years. The results will help you decide how hot, cold, wet, or windy it might be!

Date:

Astronomy

Aug. 22, 2013 Rise Set
Actual Time 7:08 AM EDT 8:34 PM EDT
Civil Twilight 6:40 AM EDT 9:02 PM EDT
Nautical Twilight 6:06 AM EDT 9:36 PM EDT
Astronomical Twilight 5:30 AM EDT 10:12 PM EDT
Moon 9:19 PM EDT (8/22) 8:56 AM EDT (8/22)
Length of Visible Light 14h 22m
Length of Day
13h 26m
Waning Gibbous, 97% of the Moon is Illuminated
Aug 22
Waning Gibbous
Aug 28
Last Quarter
Sep 5
New
Sep 12
First Quarter
Sep 19
Full

Hourly Weather History & Observations

Time (EDT) Temp. Heat Index Dew Point Humidity Pressure Visibility Wind Dir Wind Speed Gust Speed Precip Events Conditions
12:53 AM 66.0 °F - 63.0 °F 90% 30.09 in 7.0 mi Calm Calm - N/A   Clear
1:53 AM 66.0 °F - 63.0 °F 90% 30.08 in 7.0 mi Calm Calm - N/A   Clear
2:53 AM 64.9 °F - 62.1 °F 90% 30.08 in 5.0 mi Calm Calm - N/A   Clear
3:53 AM 66.0 °F - 63.0 °F 90% 30.07 in 6.0 mi South 3.5 mph - N/A   Clear
4:53 AM 64.9 °F - 62.1 °F 90% 30.07 in 7.0 mi Calm Calm - N/A   Clear
5:53 AM 63.0 °F - 61.0 °F 93% 30.09 in 1.5 mi Calm Calm - N/A   Clear
6:01 AM 64.4 °F - 62.6 °F 94% 30.10 in 5.0 mi Calm Calm - N/A   Clear
6:53 AM 63.0 °F - 61.0 °F 93% 30.09 in 5.0 mi Calm Calm - N/A   Clear
7:53 AM 66.9 °F - 64.0 °F 90% 30.09 in 6.0 mi Calm Calm - N/A   Clear
8:53 AM 73.0 °F - 66.9 °F 81% 30.09 in 10.0 mi SW 6.9 mph - N/A   Clear
9:53 AM 77.0 °F - 68.0 °F 74% 30.09 in 10.0 mi SW 5.8 mph - N/A   Clear
10:53 AM 81.0 °F 84.1 °F 69.1 °F 67% 30.10 in 10.0 mi West 8.1 mph - N/A   Scattered Clouds
11:53 AM 82.9 °F 86.5 °F 69.1 °F 63% 30.09 in 10.0 mi WNW 5.8 mph - N/A   Clear
12:53 PM 84.0 °F 87.8 °F 69.1 °F 61% 30.10 in 10.0 mi Calm Calm - N/A   Clear
1:30 PM 84.2 °F 88.4 °F 69.8 °F 62% 30.11 in 10.0 mi North 3.5 mph - N/A Thunderstorm Thunderstorm
1:47 PM 73.4 °F - 66.2 °F 78% 30.12 in 1.8 mi NNE 25.3 mph 35.7 mph 0.09 in Rain , Thunderstorm Heavy Thunderstorms and Rain
1:53 PM 75.0 °F - 66.9 °F 76% 30.09 in 2.0 mi ENE 20.7 mph 35.7 mph 0.14 in Rain , Thunderstorm Thunderstorms and Rain
2:02 PM 77.0 °F - 68.0 °F 74% 30.10 in 10.0 mi ENE 6.9 mph - 0.00 in Thunderstorm Thunderstorm
2:22 PM 82.4 °F 87.2 °F 71.6 °F 70% 30.10 in 10.0 mi Variable 4.6 mph - 0.00 in   Partly Cloudy
2:53 PM 81.0 °F 84.4 °F 70.0 °F 69% 30.08 in 10.0 mi ESE 3.5 mph - 0.00 in Thunderstorm Clear
3:09 PM 82.4 °F 87.2 °F 71.6 °F 70% 30.09 in 10.0 mi SE 4.6 mph - N/A   Clear
3:53 PM 84.9 °F 88.2 °F 68.0 °F 57% 30.06 in 10.0 mi NNE 3.5 mph - N/A   Clear
4:53 PM 84.9 °F 89.4 °F 70.0 °F 61% 30.05 in 10.0 mi North 4.6 mph - N/A   Mostly Cloudy
5:17 PM 80.6 °F 83.2 °F 68.0 °F 65% 30.08 in 10.0 mi NNE 16.1 mph 21.9 mph N/A Thunderstorm Thunderstorm
5:53 PM 78.1 °F - 68.0 °F 71% 30.06 in 10.0 mi NE 10.4 mph - N/A Thunderstorm Clear
6:05 PM 77.0 °F - 68.0 °F 74% 30.07 in 10.0 mi NNE 15.0 mph - N/A   Clear
6:53 PM 75.9 °F - 66.0 °F 71% 30.05 in 10.0 mi ENE 10.4 mph - N/A   Clear
7:53 PM 73.0 °F - 66.9 °F 81% 30.03 in 10.0 mi East 4.6 mph - N/A   Clear
8:53 PM 73.0 °F - 66.0 °F 79% 30.03 in 10.0 mi Calm Calm - N/A   Clear
9:53 PM 70.0 °F - 66.0 °F 87% 30.05 in 10.0 mi Calm Calm - N/A   Clear
10:53 PM 68.0 °F - 66.0 °F 93% 30.06 in 10.0 mi Calm Calm - N/A   Clear
11:53 PM 70.0 °F - 66.9 °F 90% 30.07 in 10.0 mi NNE 6.9 mph - N/A   Overcast